User: anonymous   Login
Location: Waldport
(44.4270°N, 124.0680°W)
Time: 15:24:38
(UTC-07:00)
Language:

Cosmos 1023 Rocket - Orbit

View from above orbital plane
View from above orbital plane
View from above satellite
View from above satellite

Ground track
Ground track

The orbit data is extracted from the following two-line orbital elements,

1 10962U 78063B   15087.99380990  .00000277  00000-0  94344-4 0  9994
2 10962 074.0785 276.2187 0024824 026.0892 334.1508 14.40865639929023
Epoch (UTC): 28 March 2015 23:51:05
Eccentricity: 0.0024824
inclination: 74.0785°
perigee height: 738 km
apogee height: 773 km
right ascension of ascending node: 276.2187°
argument of perigee: 26.0892°
revolutions per day: 14.40865639
mean anomaly at epoch: 334.1508°
orbit number at epoch: 92902

The dashed part of the orbit path shows where the satellite is in the earth's shadow,  

DLR